Location: El Bakhil
(32.7726°N, 5.5387°W)
Time: 20:58:57
(UTC+00:00)

N. Korean satellite - Pass Details

Date: 02 December 2021
Orbit: 447 x 490 km, 97.3° (Epoch: 27 January)

Event Time Altitude Azimuth Distance (km) Brightness Sun altitude
Rises 05:51:55 0° 2° (N) 2,456 10.0 -15.6°
Reaches altitude 10° 05:54:01 10° 355° (N) 1,577 8.9 -15.2°
Maximum altitude 05:57:12 40° 285° (WNW) 667 6.7 -14.6°
Drops below altitude 10° 06:00:22 10° 214° (SSW) 1,566 9.0 -13.9°
Sets 06:02:27 0° 206° (SSW) 2,435 10.0 -13.5°
